Find Tiangong (Chinese Space Station)

NORAD ID: 48274 Int'l Des: 2021-035 Owner: CMSEO Country: CN operational
LEOCIRCULAR

当前视图

正在加载3D地球...

About Tiangong (Chinese Space Station)

Tiangong (Chinese Space Station) (NORAD 48274) is a satellite launched Apr 29, 2021 by CMSEO of CN. It operates in LEO, CIRCULAR orbit with a mass of 21500.00 kg.

即将过境

Passes for default location (London). Set your location on the main map for personalized predictions.

高度历史

Loading altitude history...

两行轨道根数

1 48274U 21035A 26164.84158950 .00024252 00000-0 28689-3 0 9996
2 48274 41.4695 342.3609 0007804 49.8258 310.3263 15.60672813292648
Epoch: Jun 13, 2026 • Age: 7 hours

当前状态

高度 402.5 km
速度 7.67 km/s
星下点 -41.42°S, 70.91°W
发射日期 Apr 29, 2021
运行时间 5.1 years
类型 other

技术详情

分类 Payload
质量 21500.00 kg
干质量 20838.00 kg
总质量 22500.00 kg
长度 16.60 m
直径 4.20 m
跨度 30.00 m
形状 Step Cyl + 2 Pan
制造商 CAST
平台类型 Tianhe
阶段状态 In Orbit
所有者/国家 CMSEO/CN

Most Searched